STARLINK-33785, 63516

Orbit data source: Space-Track

STARLINK-33785, 63516 is a payload satellite owned by SpaceX/Seattle (US) in LEO that was launched on Mon, 07 Apr 2025 UTC via an FALCON 9 launch vehicle from the Air Force Western Test Range (AFWTR). Payload-class satellites include a variety of spacecraft equipped with specific instruments for various scientific and technological missions. These include communications satellites like Starlink; space stations such as the ISS; scientific satellites like the Hubble; Earth observation satellites from companies like Planet Labs, Umbra, and HawkEye 360; GPS; miniature CubeSats for education and research; and military/defense satellites.

Loading next visibility...
Identifier
63516, 2025-071Z
Orbit
LEO
Last TLE update
13 hours ago
Origin
Manufacturer
SpaceX/Seattle
Mission
Operational Commercial Communications
Bus & Motor
STARLINK V2MO, Unknown motor
Mass
575 kg wet, ~530 kg dry
Launch date (UTC)
2025-04-07 (1 month ago)
Launch vehicle
FALCON 9
Launch site
Air Force Western Test Range (AFWTR)
Object type
Payload
Rocket body
Debris
Shape & HBR
Box + 1 Pan, 29 m
Radar Cross Section
41.120 m², Large (>1 m²)

Expand to show TLE details & history

TLE from 13 hours ago
0 STARLINK-33785
1 63516U 25071Z   25129.25002315 -.01364158  00000-0 -24138-1 0  9992
2 63516  53.1598 116.9284 0001285  70.2683  60.9458 15.52708280  6092
Epoch: 2025-05-09T06:00Z
Definitive object data (Epoch: 2025-05-09T06:00:02Z)
Latitude
37.1289°
Longitude
-54.72442°
Altitude
411.393 km
Speed
7.669 km/s
True Right ascension
17h 30m 22s
True Declination
36° 57' 18"
Sunlit
Object was in full shadow at TLE epoch
Visualization TLE readout
Latitude
-53.30347°
Longitude
68.52089°
Altitude
432.822 km
Speed
7.651 km/s
Apparent Right ascension
18h 42m 40s
Apparent Declination
-78° 59' 49"
Sunlit
Object is in daylight
Visualization observer readout
Local Sidereal Time
03:08:48
Azimuth
192.71° SSW
Elevation
-45.808°
Doppler factor
1
Orbital elements
Apogee altitude
409.954 km
Perigee altitude
408.209 km
Semi-major axis
6,787.218 km
Eccentricity
0.0001285
Inclination
53.1598°
RAAN
116.9284°
Arg. of periapsis
70.2683°
True anomaly
60.95867°
Mean anomaly
60.9458°
Eccentric anomaly
60.95224°
Mean motion
3.88155 °/min
BSTAR
-0.024138
Orbital period
92.75 mins
Loading maneuver chart data...
Loading SW <> Apogee altitude chart data...
Loading historical data...
Loading historical data...
Loading historical data...
Loading historical data...
Loading historical data...
Loading historical data...
Loading historical data...

STARLINK-33785 Visibility forecast

Observer location: undefined°, undefined°

Span
Click to sort rows by Start time (UTC) header in descending order
Start Az.
Max El. time (UTC)
Max El. Az.
Max El.
End time (UTC)
End Az.
5 mins2025-05-10 01:42:54.516Z220.994° SW2025-05-10 01:45:54.516Z83.682° E41.151°2025-05-10 01:47:54.516Z55.4° ENE
4 mins2025-05-10 08:13:54.516Z333.812° NNW2025-05-10 08:14:54.516Z8.324° NNE36.723°2025-05-10 08:17:54.516Z111.532° ESE
|